Previsão horária em Senihiv

Hoje, 30 Julho, Sexta-feira

Tempo Temperatura Precipitação Vento Pressão Humidade
00:00 +19°C° 0 mm 2 m/s 738 mmHg 85%
01:00 +19°C° 0 mm 2 m/s 738 mmHg 85%
02:00 +18°C° 0 mm 2 m/s 738 mmHg 86%
03:00 +18°C° 0 mm 2 m/s 738 mmHg 86%
04:00 +17°C° 0 mm 2 m/s 738 mmHg 86%
05:00 +17°C° 0 mm 2 m/s 738 mmHg 85%
06:00 +19°C° 0 mm 2 m/s 738 mmHg 78%
07:00 +21°C° 0 mm 3 m/s 738 mmHg 70%
08:00 +24°C° 0 mm 3 m/s 738 mmHg 62%
09:00 +25°C° 0 mm 3 m/s 739 mmHg 58%
10:00 +26°C° 0 mm 3 m/s 739 mmHg 53%
11:00 +28°C° 0 mm 3 m/s 739 mmHg 48%
12:00 +28°C° 0 mm 3 m/s 738 mmHg 46%
13:00 +29°C° 0 mm 4 m/s 738 mmHg 43%
14:00 +29°C° 0 mm 4 m/s 738 mmHg 40%
15:00 +29°C° 0 mm 4 m/s 738 mmHg 42%
16:00 +29°C° 0 mm 3 m/s 738 mmHg 44%
17:00 +29°C° 0 mm 3 m/s 737 mmHg 46%
18:00 +27°C° 0 mm 3 m/s 737 mmHg 52%
19:00 +25°C° 0 mm 2 m/s 737 mmHg 57%
20:00 +24°C° 0 mm 2 m/s 737 mmHg 63%
21:00 +23°C° 0 mm 2 m/s 737 mmHg 64%
22:00 +21°C° 0 mm 2 m/s 737 mmHg 65%
23:00 +21°C° 0 mm 3 m/s 737 mmHg 67%

Amanhã, 31 Julho, Sábado

Tempo Temperatura Precipitação Vento Pressão Humidade
00:00 +20°C° 0 mm 3 m/s 737 mmHg 69%
01:00 +20°C° 0 mm 2 m/s 737 mmHg 70%
02:00 +19°C° 0 mm 2 m/s 737 mmHg 72%
03:00 +20°C° 0 mm 2 m/s 737 mmHg 71%
04:00 +20°C° 0 mm 2 m/s 737 mmHg 69%
05:00 +21°C° 0 mm 2 m/s 737 mmHg 67%
06:00 +23°C° 0 mm 2 m/s 738 mmHg 66%
07:00 +24°C° 0 mm 3 m/s 738 mmHg 64%
08:00 +26°C° 0 mm 3 m/s 738 mmHg 62%
09:00 +27°C° 0 mm 3 m/s 738 mmHg 57%
10:00 +29°C° 0 mm 4 m/s 738 mmHg 53%
11:00 +32°C° 0 mm 4 m/s 738 mmHg 48%
12:00 +32°C° 0 mm 4 m/s 737 mmHg 44%
13:00 +33°C° 0 mm 4 m/s 737 mmHg 41%
14:00 +34°C° 0 mm 4 m/s 737 mmHg 37%
15:00 +33°C° 0 mm 4 m/s 737 mmHg 40%
16:00 +33°C° 0 mm 3 m/s 736 mmHg 43%
17:00 +33°C° 0 mm 3 m/s 736 mmHg 46%
18:00 +30°C° 0 mm 3 m/s 736 mmHg 52%
19:00 +28°C° 0 mm 4 m/s 736 mmHg 58%
20:00 +26°C° 0 mm 4 m/s 736 mmHg 64%
21:00 +25°C° 0.2 mm 4 m/s 736 mmHg 68%
22:00 +24°C° 0.2 mm 3 m/s 736 mmHg 72%
23:00 +22°C° 0.2 mm 3 m/s 736 mmHg 76%

Depois de amanhã, 1 Agosto, Domingo

Tempo Temperatura Precipitação Vento Pressão Humidade
00:00 +21°C° 0.7 mm 3 m/s 736 mmHg 82%
01:00 +20°C° 0.7 mm 2 m/s 736 mmHg 88%
02:00 +19°C° 0.7 mm 2 m/s 736 mmHg 94%
03:00 +19°C° 0 mm 2 m/s 736 mmHg 96%
04:00 +18°C° 0 mm 2 m/s 737 mmHg 97%
05:00 +18°C° 0 mm 2 m/s 737 mmHg 98%
06:00 +19°C° 0 mm 2 m/s 737 mmHg 93%
07:00 +20°C° 0 mm 2 m/s 737 mmHg 89%
08:00 +21°C° 0 mm 3 m/s 738 mmHg 84%
09:00 +24°C° 0 mm 2 m/s 738 mmHg 75%
10:00 +26°C° 0 mm 1 m/s 738 mmHg 67%
11:00 +28°C° 0 mm 1 m/s 738 mmHg 58%
12:00 +29°C° 0 mm 1 m/s 737 mmHg 53%
13:00 +29°C° 0 mm 1 m/s 737 mmHg 49%
14:00 +30°C° 0 mm 1 m/s 737 mmHg 45%
15:00 +30°C° 0 mm 1 m/s 737 mmHg 45%
16:00 +31°C° 0 mm 1 m/s 737 mmHg 45%
17:00 +31°C° 0 mm 1 m/s 736 mmHg 44%
18:00 +29°C° 0 mm 2 m/s 736 mmHg 51%
19:00 +27°C° 0 mm 3 m/s 735 mmHg 57%
20:00 +25°C° 0 mm 4 m/s 735 mmHg 64%
21:00 +24°C° 0.6 mm 3 m/s 735 mmHg 71%
22:00 +23°C° 0.6 mm 2 m/s 735 mmHg 79%
23:00 +22°C° 0.6 mm 1 m/s 735 mmHg 86%

2 Agosto, Segunda-feira

Tempo Temperatura Precipitação Vento Pressão Humidade
00:00 +22°C° 0.3 mm 1 m/s 734 mmHg 88%
01:00 +22°C° 0.3 mm 1 m/s 734 mmHg 90%
02:00 +21°C° 0.3 mm 1 m/s 734 mmHg 92%
03:00 +20°C° 0 mm 2 m/s 734 mmHg 93%
04:00 +19°C° 0 mm 2 m/s 734 mmHg 94%
05:00 +19°C° 0 mm 3 m/s 734 mmHg 95%
06:00 +19°C° 0.1 mm 3 m/s 734 mmHg 92%
07:00 +20°C° 0.1 mm 3 m/s 735 mmHg 89%
08:00 +20°C° 0.1 mm 4 m/s 735 mmHg 86%
09:00 +21°C° 0.1 mm 4 m/s 735 mmHg 83%
10:00 +21°C° 0.1 mm 4 m/s 735 mmHg 79%
11:00 +22°C° 0.1 mm 5 m/s 736 mmHg 76%
12:00 +21°C° 0.1 mm 5 m/s 736 mmHg 75%
13:00 +21°C° 0.1 mm 5 m/s 736 mmHg 74%
14:00 +21°C° 0.1 mm 5 m/s 737 mmHg 74%
15:00 +20°C° 0 mm 5 m/s 737 mmHg 73%
16:00 +20°C° 0 mm 5 m/s 737 mmHg 73%
17:00 +19°C° 0 mm 5 m/s 737 mmHg 72%
18:00 +18°C° 0 mm 4 m/s 737 mmHg 75%
19:00 +17°C° 0 mm 3 m/s 738 mmHg 79%
20:00 +16°C° 0 mm 2 m/s 738 mmHg 82%
21:00 +16°C° 0 mm 1 m/s 738 mmHg 85%
22:00 +15°C° 0 mm 1 m/s 739 mmHg 87%
23:00 +15°C° 0 mm 1 m/s 739 mmHg 89%

3 Agosto, Terça-feira

Tempo Temperatura Precipitação Vento Pressão Humidade
00:00 +15°C° 0 mm 2 m/s 739 mmHg 90%
01:00 +15°C° 0 mm 2 m/s 739 mmHg 91%
02:00 +15°C° 0 mm 2 m/s 739 mmHg 91%
03:00 +13°C° 0 mm 3 m/s 739 mmHg 93%
04:00 +13°C° 0 mm 3 m/s 740 mmHg 94%
05:00 +13°C° 0 mm 3 m/s 740 mmHg 96%
06:00 +16°C° 0 mm 3 m/s 740 mmHg 89%
07:00 +18°C° 0 mm 3 m/s 740 mmHg 81%
08:00 +19°C° 0 mm 4 m/s 741 mmHg 74%
09:00 +21°C° 0 mm 4 m/s 741 mmHg 68%
10:00 +22°C° 0 mm 4 m/s 741 mmHg 62%
11:00 +23°C° 0 mm 4 m/s 741 mmHg 55%
12:00 +25°C° 0 mm 4 m/s 741 mmHg 52%
13:00 +25°C° 0 mm 4 m/s 741 mmHg 50%
14:00 +26°C° 0 mm 4 m/s 741 mmHg 47%
15:00 +25°C° 0 mm 4 m/s 741 mmHg 50%
16:00 +24°C° 0 mm 3 m/s 741 mmHg 54%
17:00 +24°C° 0 mm 3 m/s 741 mmHg 58%
18:00 +21°C° 0 mm 2 m/s 741 mmHg 61%
19:00 +20°C° 0 mm 2 m/s 741 mmHg 65%
20:00 +18°C° 0 mm 2 m/s 741 mmHg 69%
21:00 +18°C° 0 mm 1 m/s 742 mmHg 69%
22:00 +18°C° 0 mm 1 m/s 742 mmHg 70%
23:00 +16°C° 0 mm 1 m/s 742 mmHg 70%

4 Agosto, Quarta-feira

Tempo Temperatura Precipitação Vento Pressão Humidade
00:00 +16°C° 0 mm 1 m/s 742 mmHg 70%
01:00 +15°C° 0 mm 1 m/s 742 mmHg 71%
02:00 +15°C° 0 mm 1 m/s 742 mmHg 71%
03:00 +15°C° 0 mm 2 m/s 741 mmHg 73%
04:00 +15°C° 0 mm 2 m/s 741 mmHg 74%
05:00 +14°C° 0 mm 2 m/s 741 mmHg 75%
06:00 +16°C° 0 mm 2 m/s 741 mmHg 72%
07:00 +18°C° 0 mm 2 m/s 741 mmHg 69%
08:00 +19°C° 0 mm 3 m/s 741 mmHg 66%
09:00 +20°C° 0.3 mm 2 m/s 741 mmHg 67%
10:00 +21°C° 0.3 mm 2 m/s 742 mmHg 68%
11:00 +23°C° 0.3 mm 2 m/s 742 mmHg 68%
12:00 +22°C° 0.6 mm 3 m/s 741 mmHg 69%
13:00 +22°C° 0.6 mm 3 m/s 741 mmHg 69%
14:00 +22°C° 0.6 mm 3 m/s 741 mmHg 70%
15:00 +24°C° 0.1 mm 3 m/s 740 mmHg 65%
16:00 +25°C° 0.1 mm 3 m/s 740 mmHg 60%
17:00 +25°C° 0.1 mm 3 m/s 740 mmHg 56%
18:00 +23°C° 0.1 mm 2 m/s 740 mmHg 66%
19:00 +20°C° 0.1 mm 2 m/s 740 mmHg 75%
20:00 +18°C° 0.1 mm 2 m/s 740 mmHg 85%
21:00 +17°C° 0 mm 2 m/s 740 mmHg 88%
22:00 +17°C° 0 mm 2 m/s 740 mmHg 90%
23:00 +16°C° 0 mm 2 m/s 740 mmHg 92%
Mostrar mais

Necessitamos do seu Consentimento

A Meteoprog e os seus Fornecedores de Serviços podem armazenar e aceder a dados pessoais como cookies, identificadores do dispositivo ou outras tecnologias semelhantes existentes no seu dispositivo e processar estes dados para personalizar conteúdos e anúncios, assim como funcionalidades nas redes sociais e análise de tráfego.

  • Armazenar e/ou aceder a informações no seu dispositivo

    Os cookies, identificadores do dispositivo ou outras informações podem ser armazenados ou acedidos no seu dispositivo, para os fins acima indicados.

  • Anúncios e conteúdos personalizados, medição de anúncios e conteúdos, dados sobre o público-alvo e desenvolvimento de produtos

    Os anúncios e os conteúdos podem ser personalizados com base num perfil. Podem ser adicionados dados adicionais para uma maior personalização dos anúncios e dos conteúdos. A eficácia dos anúncios e dos conteúdos pode ser medida. Podem ser obtidas informações sobre o público que visualizou os anúncios e os conteúdos. Estes dados podem ser usados para desenvolver ou melhorar sistemas, softwares ou a experiência do utilizador.

Ao clicar em "Eu concordo”, permitirá o uso de cookies, identificadores do dispositivo e web beacons mencionados ou outras tecnologias semelhantes. As configurações do navegador do seu dispositivo podem ser alteradas.

Para certos fins, podem ser invocados interesses legítimos ao invés de consentimento. Pode ler mais informação sobre este assunto na nossa Política de Privacidade e Cookies.